This is the latest recevied weather packets stored in our database for station/object K1TTC. If no packets are shown the sender has not sent any weather packets the latest 10 day(s).
| Time | Temp. | Humidity | Pressure | Rain* | Wind** | Luminosity | Snow |
|---|---|---|---|---|---|---|---|
| 1777845677 | 11.11° C | 33% | 1008.4 hPa | 0 mm | - | 83 W/m² | - |
| 1777845078 | 11.67° C | 32% | 1008.2 hPa | 0 mm | - | 88 W/m² | - |
| 1777844477 | 11.67° C | 31% | 1008.2 hPa | 0 mm | - | 146 W/m² | - |
| 1777843955 | 11.67° C | 32% | 1008.2 hPa | 0 mm | - | 374 W/m² | - |
| 1777843279 | 11.67° C | 32% | 1008 hPa | 0 mm | - | 146 W/m² | - |
| 1777842759 | 11.67° C | 32% | 1007.8 hPa | 0 mm | - | 158 W/m² | - |
| 1777842076 | 11.67° C | 33% | 1007.7 hPa | 0 mm | - | 118 W/m² | - |
| 1777841476 | 11.67° C | 31% | 1007.6 hPa | 0 mm | - | 109 W/m² | - |
| 1777840877 | 11.67° C | 32% | 1007.5 hPa | 0 mm | - | 149 W/m² | - |
| 1777840352 | 12.22° C | 31% | 1007.4 hPa | 0 mm | - | 156 W/m² | - |
| 1777839676 | 11.67° C | 31% | 1007.3 hPa | 0 mm | - | 255 W/m² | - |
| 1777839076 | 11.67° C | 32% | 1007.2 hPa | 0 mm | - | 227 W/m² | - |
| 1777838477 | 12.22° C | 35% | 1007.1 hPa | 0 mm | - | 171 W/m² | - |
| 1777837873 | 11.67° C | 36% | 1007.1 hPa | 0 mm | - | 251 W/m² | - |
| 1777837273 | 11.67° C | 34% | 1007.1 hPa | 0 mm | - | 265 W/m² | - |
| 1777836673 | 11.67° C | 34% | 1007.2 hPa | 0 mm | - | 227 W/m² | - |
| 1777836071 | 11.67° C | 34% | 1007.3 hPa | 0 mm | - | 171 W/m² | - |
| 1777835474 | 12.22° C | 37% | 1007.2 hPa | 0 mm | - | 163 W/m² | - |
| 1777834869 | 12.22° C | 38% | 1007.3 hPa | 0 mm | - | 253 W/m² | - |
| 1777834268 | 12.22° C | 37% | 1007.3 hPa | 0 mm | - | 485 W/m² | - |
| 1777833668 | 11.67° C | 37% | 1007.4 hPa | 0 mm | - | 438 W/m² | - |
| 1777833070 | 11.67° C | 38% | 1007.5 hPa | 0 mm | - | 385 W/m² | - |
| 1777832468 | 11.67° C | 39% | 1007.5 hPa | 0 mm | - | 410 W/m² | - |
| 1777831951 | 11.11° C | 40% | 1007.5 hPa | 0 mm | - | 434 W/m² | - |
| 1777831337 | 11.11° C | 39% | 1007.7 hPa | 0 mm | - | 446 W/m² | - |
* Rain latest hour (hover to see other rain measurements)
** Current wind speed in m/s (hover to see current wind gust speed)